KB6OQJ Weather Reports


time (UTC)temp
C
wind
direction
speed
KPH
gust
KPH
rain 1hr
cm
rain 24hr
cm
rain mn
cm
humidity
%
barometer
mb
20260506201004 25 282 14.5 33.8 0.00 0.00 0.00 50 951.0
20260506200004 25 285 6.4 25.7 0.00 0.00 0.00 51 951.0
20260506195004 25 280 8.0 24.1 0.00 0.00 0.00 50 951.0
20260506194003 25 260 1.6 16.1 0.00 0.00 0.00 49 951.0
20260506193004 25 236 3.2 19.3 0.00 0.00 0.00 50 951.0
20260506192003 24 264 3.2 9.7 0.00 0.00 0.00 51 951.0
20260506191003 24 269 3.2 9.7 0.00 0.00 0.00 50 951.0
20260506190004 23 277 1.6 8.0 0.00 0.00 0.00 52 951.0
20260506185004 23 320 1.6 8.0 0.00 0.00 0.00 53 951.0
20260506184003 23 213 1.6 14.5 0.00 0.00 0.00 54 951.0
20260506183005 22 199 3.2 14.5 0.00 0.00 0.00 54 951.0
20260506182004 22 219 0.0 3.2 0.00 0.00 0.00 55 951.0
20260506181003 21 175 0.0 1.6 0.00 0.00 0.00 56 951.0
20260506180005 21 284 0.0 3.2 0.00 0.00 0.00 56 951.0
20260506175003 21 298 0.0 0.0 0.00 0.00 0.00 56 1017.5
20260506174004 20 261 0.0 0.0 0.00 0.00 0.00 56 1017.5
20260506173004 20 306 0.0 0.0 0.00 0.00 0.00 59 1017.5
20260506172004 20 217 0.0 0.0 0.00 0.00 0.00 60 1017.5
20260506171004 19 296 0.0 0.0 0.00 0.00 0.00 60 1017.5
20260506170004 19 228 0.0 0.0 0.00 0.00 0.00 61 831.2
20260506165004 18 196 0.0 0.0 0.00 0.00 0.00 62 870.3
20260506163004 18 279 0.0 0.0 0.00 0.00 0.00 62 954.2
20260506162004 17 265 0.0 0.0 0.00 0.00 0.00 62 954.2
20260506161004 17 213 0.0 0.0 0.00 0.00 0.00 60 1017.6
20260506160004 17 273 0.0 0.0 0.00 0.00 0.00 58 894.9
20260506155004 16 272 0.0 0.0 0.00 0.00 0.00 55 938.9
20260506154004 16 209 0.0 0.0 0.00 0.00 0.00 50 1017.6
20260506153004 15 227 0.0 0.0 0.00 0.00 0.00 41 978.8
20260506152004 15 180 0.0 0.0 0.00 0.00 0.00 35 948.3
20260506151003 14 152 0.0 0.0 0.00 0.00 0.00 22 926.9
20260506150003 13 146 0.0 0.0 0.00 0.00 0.00 12 1017.8
20260506145004 12 110 0.0 0.0 0.00 0.00 0.00 4 1017.9
20260506144004 12 150 0.0 0.0 0.00 0.00 0.00 3 887.9
20260506143004 11 150 0.0 0.0 0.00 0.00 0.00 5 887.9
20260506142004 11 150 0.0 0.0 0.00 0.00 0.00 7 887.9
20260506141004 11 150 0.0 0.0 0.00 0.00 0.00 6 887.9
20260506140004 11 149 0.0 0.0 0.00 0.00 0.00 8 887.9
20260506133004 11 147 0.0 0.0 0.00 0.00 0.00 11 830.2
20260506132004 11 93 0.0 0.0 0.00 0.00 0.00 13 830.2
20260506130004 11 90 0.0 20.9 0.00 0.00 0.00 13 830.2
20260505204004 22 339 6.4 20.9 0.00 0.00 0.00 47 830.2